Weather in Zemlyansk

Russia / Voronezh Oblast     51°53′59″N   38°43′58″E
temp.,
°C
wind,
m/s
gust,
m/s
humid.,
%
clouds,
%
prec.,
mm/h
press.,
hPa
HPBL,
m
22 may, sun
sun2200:00+8ese4896100 1.0 1003322
03:00+8e4898100 2.2 1000328
06:00+8ene4899100 4.4 998361
09:00+8ene5997100 5.4 997558
12:00+8ene5997100 2.9 997582
15:00+8ne61097100 17.6 997645
18:00+9ese4990100 1.6 998638
21:00+8n3794100 2.5 1000286
23 may, mon
mon2300:00+7n4990100 0.3 1001303
03:00+3n5109167 0.3 1003280
06:00+3n510862 0.0 1005320
09:00+7n57645 0.0 10071030
12:00+9n565586 0.0 10071633
15:00+10nw465597 0.0 10071611
18:00+10wnw466377 0.0 10071137
21:00+6w47835 0.1 1008112
24 may, tue
tue2400:00+5w511824 0.0 1008206
03:00+3w49875 0.0 1009150
06:00+5w511796 0.0 1009266
09:00+10wnw6968100 0.0 1008582
12:00+13nw7862100 0.1 10091624
15:00+13wnw684863 0.1 10091796
18:00+12nw5872100 0.3 10101001
21:00+8nw338371 0.6 101138
25 may, wed
wed2500:00+5n35895 0.0 101382
03:00+4nnw35905 0.0 1015107
06:00+5nnw368824 0.0 1016207
09:00+9nnw356794 0.0 1016770
12:00+12nw475983 0.0 10161575
15:00+12n566655 0.0 10161099
18:00+11n4672100 0.0 1017780
21:00+7e11815 0.0 101810
26 may, thu
thu2600:00+8s3579100 0.0 1017125
03:00+8ssw4988100 0.1 1016273
06:00+9wsw31095100 0.6 1015307
09:00+16wsw597151 0.6 1013583
12:00+19sw71063100 0.7 10111412
15:00+19sw101462100 1.3 10091687
18:00+11sw91693100 2.3 1008844
21:00+11wsw8149479 3.6 1006846